Powrót do katalogu

STARLINK-35281

AktywnyŁącznośćVLEO
NORAD 65824·PAYLOAD·🇺🇸 United States

Wystrzelony Sep 29, 2025 z Vandenberg Space Force Base

Loading…

Następne Przeloty (najbliższe 24 godziny)

TLE

ŚwieżeSource: CelesTrak SupGP

Epoka: Sep 14, 2026, 22:47 UTC

1 65824C 25221B   26257.94979167  .00049213  00000+0  14542-2 0  2574
2 65824  53.1575 287.3909 0001226  88.1097   7.0228 15.34360725    11

Śledź STARLINK-35281 w czasie rzeczywistym z AllMySat

Download on the App Store